Deze pagina wordt per oktober 2023 niet meer bijgehouden. Databases zijn hier te downloaden.

Algemeen

Kies ander jaar:
1
2
3
4A
4B
5
6
7
8
9
10
11
12
13
14
15
16
17
18
19
20
21A
21B

Bonificatie in de etappe:

Etappe van Vittorio Veneto naar Vittorio Veneto, 43 km (tijd), op 00:00:01 12 June 1988 (bron) (bron) (bron)

Overzicht verschillen.

Etappe-uitslag etappe 21B
RangRennerPloegKlasseTijdVerschil
13837L. PiaseckiDel Tongo?53:49+0:00(1:40:45)
27433E. VanderaerdenPanasonic?54:36+0:47(1:41:12)
34622T. RomingerSalotti-Chateau d'Ax?54:50+1:01(51:21)
48132R. VisentiniCarrera?54:51+1:02(17:20)
52673E. BreukinkPanasonic?55:30+1:41
63286R. PagninGewiss-Fina?55:40+1:51(1:12:39)
77319A. HampstenSeven Eleven-Hoonved?55:53+2:04
85245G. SaronniDel Tongo?55:59+2:10(35:05)
96457J. MüllerPDM?56:01+2:12(1:16:45)
104236D. GisigerMagniflex?56:02+2:13(2:01:34)
119199H. WechselbergerMalvor?56:05+2:16(31:46)
122910C. LangDel Tongo?56:15+2:26(1:46:42)
133691G. PetitoGis Gelati?56:28+2:39(2:29:35)
146814W. StutzMagniflex?56:29+2:40(56:42)
152440G. BontempiCarrera?56:32+2:43(2:03:25)
162410E. BombiniGewiss-Fina?56:34+2:45(31:24)
17132R. AlcaláSeven Eleven-Hoonved?56:39+2:50(9:21)
186360R. SørensenAriostea?56:46+2:57(54:29)
196928U. ZimmermannCarrera?56:49+3:00
203506M. GhirottoCarrera?56:55+3:06(28:55)
215354U. FreulerPanasonic?56:55+3:06(1:43:14)
223934M. PodenzanaAtala-Ofmega?57:02+3:13(55:17)
239853J. WorreGewiss-Fina?57:09+3:20(1:34:15)
249073R. KiefelSeven Eleven-Hoonved?57:17+3:28(1:20:44)
252512L. BotteonFanini-Seven up?57:21+3:32(1:40:52)
?8214A. Di BascoFanini-Seven up?57:21+3:32(2:38:09)
?6817J. SuárezZahor-Macario-Campagnolo?57:21+3:32(2:04:38)
?3979P. PoppMalvor?57:21+3:32(2:51:11)
?2514G. BottoiaSalotti-Chateau d'Ax?57:21+3:32(3:18:44)
?5169M. SaligariAriostea?57:21+3:32(2:04:45)
?3013P. GavazziFanini-Seven up?57:21+3:32(1:30:09)
?10895R. JärmannMagniflex?57:21+3:32(1:06:09)
?4361H. RedantMosoca-Isoglass-Robland-Galli?57:21+3:32(3:46:09)
?2458F. BordonaliCarrera?57:21+3:32(1:50:43)
?9655M. NorisAtala-Ofmega?57:21+3:32(2:10:49)
?3908V. PivaAriostea?57:21+3:32(2:19:11)
?3911D. PizzolMalvor?57:21+3:32(1:47:58)
?7611A. VandiMosoca-Isoglass-Robland-Galli?57:21+3:32(37:29)
?5399L. FurlanGewiss-Fina?57:21+3:32(2:15:24)
?4215M. GiovannettiGis Gelati?57:21+3:32(3:55)
?2080A. ElliFanini-Seven up?57:21+3:32(1:49:28)
?3989S. PortilloZahor-Macario-Campagnolo?57:21+3:32(46:27)
?8173M. VotoloCarrera?57:21+3:32(1:44:46)
?3574A. PeiperPanasonic?57:21+3:32(2:19:24)
?7471J. van der VeldeGis Gelati?57:21+3:32(1:32:48)
?4264S. MartinelloAtala-Ofmega?57:21+3:32(2:33:27)
?6804G. StrazzerMalvor?57:21+3:32(2:37:46)
?2384L. BoffoAlfa Lum?57:21+3:32(2:35:58)
?156S. AllocchioSalotti-Chateau d'Ax?57:21+3:32(2:46:49)
?760D. CaroliAlfa Lum?57:21+3:32(2:57:11)
?1191F. ChesiniAlba-Benotto-Sidermec?57:21+3:32(2:26:48)
?663P. GambirasioSelca-Ciclolinea-Conti?57:21+3:32(3:13:56)
?2286P. BincolettoToshiba?57:21+3:32(2:18:47)
?7382S. TomasiniFanini-Seven up?57:21+3:32(7:24)
?588E. GalleschiAlba-Benotto-Sidermec?57:21+3:32(1:13:22)
?3214M. van OrsouwPDM?57:21+3:32(1:25:33)
?5961H. LubberdingPanasonic?57:21+3:32(1:34:07)
?3854J. PierceSeven Eleven-Hoonved?57:21+3:32(57:04)
?2858J. LammertsToshiba?57:21+3:32(2:26:19)
?4242S. GiulianiSalotti-Chateau d'Ax?57:21+3:32(1:22:01)
?3845R. PiccoloGewiss-Fina?57:21+3:32(1:23:45)
?8135M. VitaliAtala-Ofmega?57:21+3:32(50:36)
?2710J. LaguiaReynolds?57:21+3:32(36:59)
?8164F. VonaSalotti-Chateau d'Ax?57:21+3:32(21:35)
?8161A. VolpiGewiss-Fina?57:21+3:32(26:38)
?1201C. ChiappucciCarrera?57:21+3:32(30:54)
?5314M. FranceschiniAlba-Benotto-Sidermec?57:21+3:32(29:36)
?63634F. PhilippotToshiba?57:21+3:32(44:15)
?4279JT. MartinezZahor-Macario-Campagnolo?57:21+3:32(18:46)
?7807E. VanottiSalotti-Chateau d'Ax?57:21+3:32(33:01)
?6204M. SiboniAriostea?57:21+3:32(48:09)
?5262C. SaviniAlba-Benotto-Sidermec?57:21+3:32(34:07)
?5984L. LukinReynolds?57:21+3:32(39:46)
?9281B. HürlimannMagniflex?57:21+3:32(1:38:37)
?4245F. GiupponiDel Tongo?57:21+3:32(3:33)
?8662P. DelgadoReynolds?57:21+3:32(4:14)
?1579R. ContiSelca-Ciclolinea-Conti?57:21+3:32(43:43)
?2671B. BreuMagniflex?57:21+3:32(7:57)
?9817P. WinnenPanasonic?57:21+3:32(5:21)
?6182D. MorandiSelca-Ciclolinea-Conti?57:21+3:32(4:15:12)
?4664P. RosolaGewiss-Fina?57:21+3:32(2:25:15)
?7869T. van VlietPanasonic?57:21+3:32(1:17:03)
?9676G. NulensPanasonic?57:21+3:32(28:48)
?4302L. RabottiniAriostea?57:21+3:32(1:18:16)
?1217F. ChioccioliDel Tongo?57:21+3:32(3:55)
?7086M. VandelliAtala-Ofmega?57:21+3:32(4:00)
?8577O. HernandezReynolds?57:21+3:32(1:06:15)
?186M. AmadoriAlfa Lum?57:21+3:32(30:23)
?3728A. LecchiDel Tongo?57:21+3:32(35:53)
?6274J. SkodaAlfa Lum?57:21+3:32(1:19:50)
?1693C. CortiSalotti-Chateau d'Ax?57:21+3:32(1:13:43)
?1839M. MadiotToshiba?57:21+3:32(6:09)
?6406M. MoroSelca-Ciclolinea-Conti?57:21+3:32(1:18:42)
?1580S. ContiniMalvor?57:21+3:32(27:45)
?4609B. RollSeven Eleven-Hoonved?57:21+3:32(1:21:11)
?1084F. CesariniAriostea?57:21+3:32(1:52:53)
?3724D. PhinneySeven Eleven-Hoonved?57:21+3:32(3:09:27)
?4691L. RotaDel Tongo?57:21+3:32(1:09:45)
?3898M. PiovaniDel Tongo?57:21+3:32(1:36:05)
?5554L. LoroDel Tongo?57:21+3:32(44:52)
?5177E. SalvadorGewiss-Fina?57:21+3:32(1:38:42)
?6757K. SteinmannMagniflex?57:21+3:32(1:36:08)
?4651T. de RooijPanasonic?57:21+3:32(1:37:34)
?8646D. Del BenGis Gelati?57:21+3:32(2:39:50)
?3505F. GhiottoGis Gelati?57:21+3:32(2:00:10)
?4005A. PozziSalotti-Chateau d'Ax?57:21+3:32(1:41:50)
?301D. ArnaudReynolds?57:21+3:32(45:41)
?4581J. Rodríguez MagroReynolds?57:21+3:32(56:32)
?5530M. MauriReynolds?57:21+3:32(2:14:16)
?9431E. GrimaniAlba-Benotto-Sidermec?57:21+3:32(3:20:15)
?5216M. SantaromitaAlba-Benotto-Sidermec?57:21+3:32(39:49)
?3814G. FaresinMalvor?57:21+3:32(1:04:07)
?5341G. FregoneseMalvor?57:21+3:32(1:23:15)
?5552S. LorenzonMalvor?57:21+3:32(1:47:41)
?9834A. WohlfahrterMalvor?57:21+3:32(2:17:09)
?6913M. ZenAlfa Lum?57:21+3:32(1:46:37)
?24301S. CortinovisAtala-Ofmega?57:21+3:32(1:48:02)
?7085C. VandelliAtala-Ofmega?57:21+3:32(1:54:13)
?4556E. RocchiSelca-Ciclolinea-Conti?57:21+3:32(2:37:10)
?7805F. VannucciSelca-Ciclolinea-Conti?57:21+3:32(2:07:08)
?4641L. RonsseMosoca-Isoglass-Robland-Galli?57:21+3:32(2:53:21)
?7488G. VandewalleMosoca-Isoglass-Robland-Galli?57:21+3:32(3:25:12)
?4944A. FerrettiMosoca-Isoglass-Robland-Galli?57:21+3:32(2:36:24)
?9887D. WyderMosoca-Isoglass-Robland-Galli?57:21+3:32(1:07:35)
?3140J. ØstergaardMosoca-Isoglass-Robland-Galli?57:21+3:32(3:01:25)
Stand in het algemeen klassement
RangRennerPloegKlasseTijdVerschil
17319A. HampstenSeven Eleven-Hoonved?97:18:56
22673E. BreukinkPanasonic?97:20:39+1:43
36928U. ZimmermannCarrera?97:21:41+2:45
44245F. GiupponiDel Tongo?97:25:52+6:56
51217F. ChioccioliDel Tongo?97:32:16+13:20
64215M. GiovannettiGis Gelati?97:34:16+15:20
78662P. DelgadoReynolds?97:35:58+17:02
89817P. WinnenPanasonic?97:37:10+18:14
97382S. TomasiniFanini-Seven up?97:45:57+27:01
107086M. VandelliAtala-Ofmega?97:45:58+27:02
112671B. BreuMagniflex?97:47:13+28:17
121839M. MadiotToshiba?97:47:13+28:17
138132R. VisentiniCarrera?97:59:03+40:07
14132R. AlcaláSeven Eleven-Hoonved?97:59:05+40:09
158164F. VonaSalotti-Chateau d'Ax?98:01:27+42:31
164279JT. MartinezZahor-Macario-Campagnolo?98:08:08+49:12
179676G. NulensPanasonic?98:12:45+53:49
183506M. GhirottoCarrera?98:13:44+54:48
198161A. VolpiGewiss-Fina?98:14:01+55:05
202410E. BombiniGewiss-Fina?98:14:29+55:33
217807E. VanottiSalotti-Chateau d'Ax?98:16:35+57:39
221580S. ContiniMalvor?98:17:08+58:12
239199H. WechselbergerMalvor?98:18:13+59:17
241201C. ChiappucciCarrera?98:20:07+1:01:11
255314M. FranceschiniAlba-Benotto-Sidermec?98:20:18+1:01:22
26186M. AmadoriAlfa Lum?98:21:38+1:02:42
275245G. SaronniDel Tongo?98:22:24+1:03:28
285262C. SaviniAlba-Benotto-Sidermec?98:23:06+1:04:10
293728A. LecchiDel Tongo?98:23:34+1:04:38
302710J. LaguiaReynolds?98:25:51+1:06:55
317611A. VandiMosoca-Isoglass-Robland-Galli?98:27:54+1:08:58
325984L. LukinReynolds?98:29:17+1:10:21
331579R. ContiSelca-Ciclolinea-Conti?98:30:26+1:11:30
345216M. SantaromitaAlba-Benotto-Sidermec?98:30:31+1:11:35
358135M. VitaliAtala-Ofmega?98:31:03+1:12:07
365554L. LoroDel Tongo?98:33:54+1:14:58
3763634F. PhilippotToshiba?98:34:36+1:15:40
38301D. ArnaudReynolds?98:36:20+1:17:24
396204M. SiboniAriostea?98:37:03+1:18:07
403989S. PortilloZahor-Macario-Campagnolo?98:37:39+1:18:43
413934M. PodenzanaAtala-Ofmega?98:37:53+1:18:57
426360R. SørensenAriostea?98:39:47+1:20:51
436814W. StutzMagniflex?98:44:47+1:25:51
444622T. RomingerSalotti-Chateau d'Ax?98:46:40+1:27:44
454581J. Rodríguez MagroReynolds?98:47:11+1:28:15
463854J. PierceSeven Eleven-Hoonved?98:47:42+1:28:46
478577O. HernandezReynolds?98:48:09+1:29:13
4810895R. JärmannMagniflex?98:54:16+1:35:20
493286R. PagninGewiss-Fina?98:54:22+1:35:26
503814G. FaresinMalvor?98:54:58+1:36:02
51588E. GalleschiAlba-Benotto-Sidermec?98:57:20+1:38:24
524691L. RotaDel Tongo?98:58:47+1:39:51
534302L. RabottiniAriostea?99:02:38+1:43:42
541693C. CortiSalotti-Chateau d'Ax?99:03:18+1:44:22
556457J. MüllerPDM?99:05:17+1:46:21
564242S. GiulianiSalotti-Chateau d'Ax?99:07:06+1:48:10
577869T. van VlietPanasonic?99:07:11+1:48:15
589887D. WyderMosoca-Isoglass-Robland-Galli?99:08:06+1:49:10
596406M. MoroSelca-Ciclolinea-Conti?99:09:39+1:50:43
606274J. SkodaAlfa Lum?99:09:57+1:51:01
614609B. RollSeven Eleven-Hoonved?99:11:03+1:52:07
629073R. KiefelSeven Eleven-Hoonved?99:11:17+1:52:21
633845R. PiccoloGewiss-Fina?99:13:44+1:54:48
645341G. FregoneseMalvor?99:14:06+1:55:10
657471J. van der VeldeGis Gelati?99:15:23+1:56:27
663214M. van OrsouwPDM?99:16:11+1:57:15
673013P. GavazziFanini-Seven up?99:19:39+2:00:43
689853J. WorreGewiss-Fina?99:24:14+2:05:18
695961H. LubberdingPanasonic?99:24:15+2:05:19
703898M. PiovaniDel Tongo?99:25:07+2:06:11
716757K. SteinmannMagniflex?99:26:08+2:07:12
729281B. HürlimannMagniflex?99:28:32+2:09:36
735177E. SalvadorGewiss-Fina?99:28:41+2:09:45
743837L. PiaseckiDel Tongo?99:28:52+2:09:56
757433E. VanderaerdenPanasonic?99:29:12+2:10:16
764005A. PozziSalotti-Chateau d'Ax?99:32:04+2:13:08
772512L. BotteonFanini-Seven up?99:32:15+2:13:19
788173M. VotoloCarrera?99:32:41+2:13:45
794651T. de RooijPanasonic?99:34:29+2:15:33
802910C. LangDel Tongo?99:35:44+2:16:48
813911D. PizzolMalvor?99:37:38+2:18:42
825354U. FreulerPanasonic?99:37:46+2:18:50
836913M. ZenAlfa Lum?99:37:52+2:18:56
842458F. BordonaliCarrera?99:38:28+2:19:32
855552S. LorenzonMalvor?99:38:32+2:19:36
862080A. ElliFanini-Seven up?99:39:40+2:20:44
8724301S. CortinovisAtala-Ofmega?99:39:40+2:20:44
881084F. CesariniAriostea?99:43:26+2:24:30
897085C. VandelliAtala-Ofmega?99:45:51+2:26:55
903505F. GhiottoGis Gelati?99:50:23+2:31:27
912440G. BontempiCarrera?99:50:43+2:31:47
924236D. GisigerMagniflex?99:51:34+2:32:38
935169M. SaligariAriostea?99:54:07+2:35:11
946817J. SuárezZahor-Macario-Campagnolo?99:57:12+2:38:16
957805F. VannucciSelca-Ciclolinea-Conti?99:59:07+2:40:11
969655M. NorisAtala-Ofmega?100:01:16+2:42:20
975399L. FurlanGewiss-Fina?100:04:12+2:45:16
985530M. MauriReynolds?100:04:55+2:45:59
999834A. WohlfahrterMalvor?100:08:00+2:49:04
1003908V. PivaAriostea?100:08:33+2:49:37
1012286P. BincolettoToshiba?100:09:06+2:50:10
1024664P. RosolaGewiss-Fina?100:14:02+2:55:06
1033574A. PeiperPanasonic?100:15:44+2:56:48
1041191F. ChesiniAlba-Benotto-Sidermec?100:16:48+2:57:52
1052858J. LammertsToshiba?100:17:20+2:58:24
1063691G. PetitoGis Gelati?100:18:37+2:59:41
1074264S. MartinelloAtala-Ofmega?100:24:23+3:05:27
1082384L. BoffoAlfa Lum?100:26:21+3:07:25
1098214A. Di BascoFanini-Seven up?100:26:44+3:07:48
1106804G. StrazzerMalvor?100:27:55+3:08:59
1114556E. RocchiSelca-Ciclolinea-Conti?100:29:09+3:10:13
1124944A. FerrettiMosoca-Isoglass-Robland-Galli?100:29:58+3:11:02
1138646D. Del BenGis Gelati?100:30:03+3:11:07
114156S. AllocchioSalotti-Chateau d'Ax?100:35:56+3:17:00
1153979P. PoppMalvor?100:40:09+3:21:13
116760D. CaroliAlfa Lum?100:48:26+3:29:30
1174641L. RonsseMosoca-Isoglass-Robland-Galli?100:53:52+3:34:56
1183724D. PhinneySeven Eleven-Hoonved?100:59:23+3:40:27
1193140J. ØstergaardMosoca-Isoglass-Robland-Galli?101:01:56+3:43:00
120663P. GambirasioSelca-Ciclolinea-Conti?101:05:35+3:46:39
1212514G. BottoiaSalotti-Chateau d'Ax?101:07:47+3:48:51
1229431E. GrimaniAlba-Benotto-Sidermec?101:10:57+3:52:01
1237488G. VandewalleMosoca-Isoglass-Robland-Galli?101:25:43+4:06:47
1244361H. RedantMosoca-Isoglass-Robland-Galli?101:38:32+4:19:36
1256182D. MorandiSelca-Ciclolinea-Conti?102:07:11+4:48:15
Etappeklassement ploegen
RangPloegTijdVerschil
1Del Tongo2:46:03
2Panasonic2:47:01+0:58
3Carrera2:48:12+2:09
4Gewiss-Fina2:49:23+3:20
5Salotti-Chateau d'Ax2:49:32+3:29
6Seven Eleven-Hoonved2:49:49+3:46
7Magniflex2:49:52+3:49
8Malvor2:50:47+4:44
9Gis Gelati2:51:10+5:07
10Ariostea2:51:28+5:25
11Atala-Ofmega2:51:44+5:41
12Fanini-Seven up2:52:03+6:00
13Zahor-Macario-Campagnolo2:52:03+6:00
14Mosoca-Isoglass-Robland-Galli2:52:03+6:00
15Alfa Lum2:52:03+6:00
16Alba-Benotto-Sidermec2:52:03+6:00
17Selca-Ciclolinea-Conti2:52:03+6:00
18Toshiba2:52:03+6:00
19Reynolds2:52:03+6:00
Algemeen klassement ploegen
RangPloegTijdVerschil
1Panasonic292:35:16
2Del Tongo292:39:04+3:48
3Carrera292:49:18+14:02
4Seven Eleven-Hoonved293:05:13+29:57
5Salotti-Chateau d'Ax293:07:20+32:04
6Gis Gelati293:10:04+34:48
7Reynolds293:10:47+35:31
8Toshiba293:10:58+35:42
9Atala-Ofmega293:11:16+36:00
10Fanini-Seven up293:17:12+41:56
11Gewiss-Fina293:18:46+43:30
12Magniflex293:22:09+46:53
13Ariostea293:26:42+51:26
14Alba-Benotto-Sidermec293:31:49+56:33
15Malvor293:32:15+56:59
16Zahor-Macario-Campagnolo293:38:31+1:03:15
17Selca-Ciclolinea-Conti293:39:33+1:04:17
18Alfa Lum293:42:31+1:07:15
19Mosoca-Isoglass-Robland-Galli293:46:58+1:11:42